Torna al catalogo

NOAA 16 DEB

AttivoPO
NORAD 41140·DEBRIS·🇺🇸 United States

Lanciato Sep 21, 2000 da Vandenberg Space Force Base

Loading…

Prossimi Passaggi (prossime 24 ore)

TLE

AggiornatoSource: Space-Track

Epoca: Sep 13, 2026, 09:56 UTC

1 41140U 00055BX  26256.41410561  .00025525  00000-0  22294-2 0  9993
2 41140  98.8326 119.3190 0019893 321.1706  38.8082 14.96632536566283

Traccia NOAA 16 DEB in tempo reale con AllMySat

Download on the App Store